Hourly Data Report for October 30, 2013

All times are specified in Local Standard Time (LST). Add 1 hour to adjust for Daylight Saving Time where and when it is observed.

POND INLET A
NUNAVUT

72°41'22.000" N
77°58'08.000" W
61.60 m
2403206
71095
YIO

Download Data

Hourly Data (October 2013)
Hourly Data Report for October 30, 2013
Temp Definition
°C
Dew Point Temp Definition
°C
Rel Hum Definition
%
Wind Dir Definition
10's deg

Wind Spd Definition
km/h
Visibility Definition
km
Stn Press Definition
kPa
Hmdx Definition


Wind Chill Definition


Weather Definition


TIME
00:00 Legend Double Dagger -17.0 -18.6 88 15 17 16.1 100.27   -26 LegendNANA
01:00 Legend Double Dagger -15.1 -17.7 81 15 17 16.1 100.26   -24 LegendNANA
02:00 Legend Double Dagger -16.9 -19.3 82 15 17 16.1 100.28   -26 LegendNANA
03:00 Legend Double Dagger -16.2 -18.5 83 14 15 16.1 100.30   -24 LegendNANA
04:00 Legend Double Dagger -15.7 -18.8 78 14 21 16.1 100.32   -25 LegendNANA
05:00 Legend Double Dagger -16.3 -19.2 79 15 15 16.1 100.33   -25 LegendNANA
06:00 Legend Double Dagger -16.3 -19.1 79 16 15 16.1 100.35   -25 LegendNANA
07:00 Legend Double Dagger -14.4 -17.2 80 15 9 16.1 100.38   -20 LegendNANA
08:00 Legend Double Dagger -13.4 -16.8 76 16 9 16.1 100.38   -19 LegendNANA
09:00 Legend Double Dagger -13.0 -16.4 76 14 13 16.1 100.37   -20 LegendNANA
10:00 Legend Double Dagger -12.6 -16.6 72 13 13 16.1 100.35   -19 LegendNANA
11:00 Legend Double Dagger -13.0 -16.6 75 20 5 16.1 100.38   -16 LegendNANA
12:00 Legend Double Dagger -12.5 -16.3 74 15 13 16.1 100.40   -19 LegendNANA
13:00 Legend Double Dagger -12.2 -15.8 75 14 15 16.1 100.41   -19 LegendNANA
14:00 Legend Double Dagger -12.2 -15.4 77 14 11 16.1 100.44   -18 LegendNANA
15:00 Legend Double Dagger -12.2 -15.5 77 19 9 16.1 100.46   -17 LegendNANA
16:00 Legend Double Dagger -12.5 -15.4 79 15 11 16.1 100.48   -19 LegendNANA
17:00 Legend Double Dagger -12.6 -14.8 84 14 4 16.1 100.47   -15 LegendNANA
18:00 Legend Double Dagger -12.1 -15.5 76 15 11 16.1 100.48   -18 LegendNANA
19:00 Legend Double Dagger -12.0 -15.3 77 15 13 16.1 100.50   -19 LegendNANA
20:00 Legend Double Dagger -12.0 -14.8 80 14 9 16.1 100.53   -17 LegendNANA
21:00 Legend Double Dagger -12.0 -14.9 79 15 9 16.1 100.53   -17 LegendNANA
22:00 Legend Double Dagger -11.7 -14.5 80 15 11 16.1 100.54   -18 LegendNANA
23:00 Legend Double Dagger -11.6 -14.6 79 15 13 16.1 100.53   -18 LegendNANA

Notes on Data Quality.

Legend

  • E = Estimated
  • M = Missing
  • NA = Not Available
  • ‡ = Partner data that is not subject to review by the National Climate Archives
Date modified: